Weather observations for the past three days for
Moody Air Force Base
Metric (Imperial)
Date Time (edt) Wind (kph) Vis. (km) Weather Sky Cond. Temperature (ºC) Relative Humidity Wind Chill (°C) Heat Index (°C) Pressure Precipitation (cm)
Air Dwpt 6 hour altimeter (cm) sea level (mb) 1 hr 3 hr 6 hr
Max. Min.
25 01:55 W 9 16.09 Fair CLR 24.4 20.9 29.9 23.5 81% 25 75.95 1012.5
25 00:55 S 6 16.09 Fair CLR 24.1 20 78% 25 76 1013.2
24 23:55 SW 6 16.09 Fair CLR 24.3 19.3 74% 25 76 1013.2
24 22:55 SW 6 16.09 Fair CLR 25.3 19.6 71% 26 76 1013.2
24 21:55 SW 9 16.09 Fair CLR 25.7 20.2 72% 27 75.97 1012.8
24 20:55 W 7 16.09 Mostly Cloudy BKN049 29.1 20.2 59% 31 75.92 1012.2
24 19:55 NW 7 16.09 A Few Clouds FEW044 30 20.8 32.9 29.3 58% 32 75.9 1011.8
24 18:55 W 13 16.09 Fair CLR 31.3 19.9 51% 33 75.87 1011.5
24 17:55 NW 19 16.09 Fair CLR 32 18.9 46% 33 75.9 1011.8
24 16:55 W 20 16.09 A Few Clouds FEW080 32.3 18.8 45% 34 75.92 1012.2
24 15:55 W 19 G 31 16.09 Partly Cloudy FEW048 SCT070 32.6 20.1 48% 35 75.95 1012.5
24 14:55 SW 22 16.09 Mostly Cloudy SCT047 SCT070 BKN190 32.1 20.3 50% 34 76 1013.2
24 13:55 W 24 G 30 16.09 Partly Cloudy FEW049 FEW065 SCT150 SCT200 31.6 19.5 32.6 23.9 49% 33 76.02 1013.5
24 12:55 W 13 16.09 A Few Clouds FEW200 31.3 19.3 49% 33 76.05 1013.9
24 11:55 SW 15 16.09 Fair CLR 31 20.9 55% 34 76.05 1013.9
24 10:55 S 9 16.09 A Few Clouds FEW180 28.6 21.1 64% 31 76 1013.2
24 09:55 SW 6 16.09 A Few Clouds FEW210 27.2 21.9 73% 29 76.07 1014.2
24 08:55 W 9 16.09 Fair CLR 25.2 21.7 81% 26 76.12 1014.9
24 07:55 W 9 16.09 Fair CLR 23.9 21.6 23.9 21.2 87% 24 76.1 1014.5
24 06:55 Calm 16.09 Fair CLR 22.1 20 88% 76.07 1014.2
24 05:55 S 6 16.09 Fair CLR 21.5 19.4 88% 76.05 1013.9
24 04:55 SW 7 16.09 A Few Clouds FEW050 21.7 19.2 86% 76.07 1014.2
24 03:55 Calm 16.09 Fair CLR 21.6 19.5 88% 76.07 1014.2
24 02:55 Calm 16.09 Fair CLR 22.4 19.7 85% 76.07 1014.2
24 01:55 S 6 16.09 Fair CLR 22.4 19.5 30.5 22.2 84% 76.1 1014.6
24 00:55 Calm 16.09 Fair CLR 25.3 18.2 65% 26 76.1 1014.5
23 23:55 Calm 16.09 Fair CLR 25.8 18.9 66% 27 76.1 1014.5
23 22:55 W 7 16.09 Fair CLR 26.5 19.6 66% 28 76.1 1014.5
23 21:55 W 13 16.09 Fair CLR 27 20.6 68% 29 76.07 1014.2
23 20:55 Calm 16.09 Fair CLR 27.1 20.7 68% 29 76.05 1013.9
23 19:55 NW 7 16.09 Fair CLR 30.5 19.2 32.6 29.7 51% 32 76.05 0.0
23 18:55 NW 7 16.09 Fair CLR 31.5 18.1 45% 32 76.05 0.0
23 17:55 NW 7 16.09 Fair CLR 32.2 18.4 44% 33 76.07 0.0
23 16:55 NW 11 16.09 A Few Clouds FEW050 FEW200 31.8 19.4 48% 34 76.12 0.0
23 15:55 SW 6 16.09 Fair CLR 31 18.3 47% 32 76.17 0.0
23 14:55 S 6 16.09 A Few Clouds FEW190 31.4 19.7 50% 33 76.2 0.0
23 13:55 W 9 16.09 Overcast FEW160 BKN180 OVC200 30.1 18.8 30.9 24.3 51% 31 76.17 0.0
23 12:55 W 7 16.09 A Few Clouds FEW140 FEW170 FEW200 29.9 19.2 53% 31 76.2 0.0
23 11:55 W 6 16.09 A Few Clouds FEW220 28.9 19.5 57% 30 76.25 0.0
23 10:55 SW 11 16.09 Fair CLR 27.4 19.2 61% 29 76.23 0.0
23 09:55 SW 17 16.09 Fair CLR 26.3 19.4 66% 28 76.28 0.0
23 08:55 SW 20 16.09 NULL NULL 25 19.8 73% 26 76.33 0.0
23 07:55 NE 6 11.27 A Few Clouds FEW200 24 19 74% 25 76.45 0.0
23 06:55 S 6 16.09 Fair CLR 21 18 83% 76.4 0.0
23 05:55 SE 6 16.09 A Few Clouds FEW030 22 18 78% 76.35 0.0
23 04:55 SE 7 16.09 Fair CLR 22 18 78% 76.35 0.0
23 03:55 SE 6 16.09 A Few Clouds FEW030 23 18 74% 76.35 0.0
23 02:55 SE 6 16.09 A Few Clouds FEW030 23 18 74% 76.38 0.0
23 01:55 SE 6 16.09 Fair CLR 24 19 74% 25 76.4 0.0
23 00:55 SE 9 16.09 Partly Cloudy SCT030 25 20 74% 26 76.4 0.0
22 23:55 Vrbl 6 16.09 Partly Cloudy SCT030 24 20 78% 24 76.38 0.0
22 21:55 Vrbl 6 16.09 A Few Clouds FEW030 26 19 65% 27 76.3 0.0
22 20:55 Vrbl 6 16.09 A Few Clouds FEW040 28 19 58% 29 76.25 0.0
22 19:55 Vrbl 6 16.09 A Few Clouds FEW050 32 18 43% 33 76.28 0.0
22 18:55 S 6 16.09 A Few Clouds FEW050 32 19 46% 33 76.25 0.0
22 17:55 S 7 16.09 Partly Cloudy SCT055 32 19 46% 33 76.23 0.0
22 16:55 Vrbl 6 16.09 Partly Cloudy SCT050 32 18 43% 33 76.25 0.0
22 15:55 SE 7 16.09 Partly Cloudy SCT050 31 18 46% 32 75.69 0.0
22 14:55 S 7 16.09 Mostly Cloudy BKN050 30 18 49% 31 76.23 0.0
22 13:55 S 6 16.09 Mostly Cloudy SCT045 BKN060 28.9 18.6 30.3 21.6 54% 30 76.23 1016.3
22 12:55 SE 13 16.09 Partly Cloudy SCT037 SCT190 29.8 19.8 55% 32 76.25 1016.6
22 11:55 SE 15 16.09 A Few Clouds FEW032 29 19.9 58% 31 76.33 1017.6
22 10:55 SE 11 16.09 A Few Clouds FEW025 26.7 20 67% 28 76.33 1017.6
22 09:55 S 11 16.09 A Few Clouds FEW018 25.6 20.1 72% 27 76.3 1017.3
22 08:55 SE 9 16.09 Fair CLR 24.1 21 83% 24 76.3 1017.3
22 07:55 E 6 16.09 A Few Clouds FEW003 21.5 20.3 21.9 19 93% 76.28 1017.0
22 06:55 Calm 16.09 Fair CLR 19.2 18.2 94% 76.23 1016.3
22 05:55 Calm 16.09 Fair CLR 19.7 18.9 95% 76.17 1015.6
22 04:55 Calm 16.09 Fair CLR 20.1 19.1 94% 76.15 1015.2
22 03:55 Calm 16.09 Fair CLR 20.6 19.2 92% 76.17 1015.6
22 02:55 SE 6 16.09 Fair CLR 21 19.3 90% 76.17 1015.6
Date Time (edt) Wind (kph) Vis. (km) Weather Sky Cond. Air Dwpt Max. Min. Relative Humidity Wind Chill (°C) Heat Index (°C) altimeter (cm) sea level (mb) 1 hr 3 hr 6 hr
6 hour
Temperature (ºC) Pressure Precipitation (cm)